{"data":{"norad_id":53794,"intl_designator":"2022-111X","name":"STARLINK-4730","alt_names":[],"object_type":"PAYLOAD","status":"ACTIVE","operator":null,"country":"US","launch_date":"2022-09-11","launch_site_code":"AFETR","launch_vehicle":null,"mission":null,"orbit_class":"UNKNOWN","rcs_meters":null,"size_class":null,"mass_kg":null,"dimensions":null,"purposes":["comms"],"wikipedia_slug":null,"has_3d_model":false,"image_url":null,"decayed_at":null,"tle_current":{"epoch":"2026-05-25T02:24:07.655904Z","epoch_age_seconds":63494,"freshness":"FRESH","line1":"1 53794U 22111X   26145.10008861 -.00000031  00000+0  16110-4 0  9994","line2":"2 53794  53.2144 290.9474 0001186  86.0376 274.0751 15.08836026205226","mean_motion":15.08836026,"eccentricity":0.0001186,"inclination_deg":53.2144,"raan_deg":290.9474,"arg_perigee_deg":86.0376,"mean_anomaly_deg":274.0751,"bstar":1.611e-5,"rev_number":20522,"period_min":95.437806042948,"perigee_km":538.93507386418,"apogee_km":540.5759979737,"semimajor_km":6917.8925359189,"source":"CELESTRAK","updated_at":"2026-05-25T13:38:17.544698Z"}}}